Location: *
(37.5724°S, 58.0067°E)
Time: 10:50:25
(UTC+00:00)

FengYun 1-2 T - Visible Passes

Search period start: 18 January 2021 00:00
Search period end: 28 January 2021 00:00
Orbit: 847 x 881 km, 98.7° (Epoch: 17 January)

Date Brightness Start Highest point End Pass type
(mag) Time Alt. Az. Time Alt. Az. Time Alt. Az.
20 Jan 7.8 16:33:17 10° SW 16:34:47 11° WSW 16:36:16 10° WSW visible
21 Jan 7.3 00:36:34 10° ENE 00:40:23 19° ESE 00:44:11 10° SSE visible
21 Jan 7.6 16:24:25 10° SSW 16:26:56 13° WSW 16:29:24 10° W visible
22 Jan 7.5 00:29:11 10° E 00:32:30 16° ESE 00:35:50 10° SSE visible
22 Jan 7.4 16:15:55 10° SSW 16:19:03 16° WSW 16:22:13 10° W visible
23 Jan 7.6 00:21:57 10° E 00:24:39 14° ESE 00:27:20 10° SSE visible
23 Jan 7.3 16:07:32 10° SSW 16:11:12 18° WSW 16:14:50 10° WNW visible
24 Jan 7.9 00:14:58 10° ESE 00:16:47 12° ESE 00:18:35 10° SE visible
24 Jan 7.2 15:59:14 10° SSW 16:03:18 21° WSW 16:07:21 10° WNW visible
25 Jan 7.0 15:50:59 10° SSW 15:55:24 25° WSW 15:59:47 10° WNW visible
